Worcester, MA

9:17 AM EDT on June 23, 2017 (GMT -0400)
Worcester Regional

Weather History for KORH - December, 2013

Change the Weather History Date:

Monday, December 30, 2013

  Actual Average Record
Temperature  
Mean Temperature 26 °F 25 °F  
Max Temperature 38 °F 32 °F 56 °F (1984)
Min Temperature 13 °F 18 °F -15 °F (1933)
Degree Days  
Heating Degree Days 39 40  
Month to date heating degree days 1098 1060  
Since 1 July heating degree days 2510 2462  
Cooling Degree Days 0 0  
Month to date cooling degree days 0 0  
Year to date cooling degree days 572 471  
Moisture  
Dew Point 22 °F    
Average Humidity 68    
Maximum Humidity 96    
Minimum Humidity 39    
Precipitation  
Precipitation 0.00 in 0.11 in 2.14 in (1942)
Month to date precipitation 4.43 3.71  
Year to date precipitation 45.73 47.96  
Snow  
Snow 0.00 in 0.60 in 5.00 in (1939)
Month to date snowfall 18.9 13.9  
Since 1 July snowfall 19.4 16.7  
Snow Depth -    
Sea Level Pressure  
Sea Level Pressure 29.83 in    
Wind  
Wind Speed 14 mph (West)    
Max Wind Speed 31 mph    
Max Gust Speed 42 mph    
Visibility 10 miles    
Events      
T = Trace of Precipitation, MM = Missing Value Source: NWS Daily Summary

Daily Weather History Graph

Daily Weather History Graph

Search for Another Location

Airport or City:

Trip Planner

Search our weather history database for the weather conditions in past years. The results will help you decide how hot, cold, wet, or windy it might be!

Date:

Astronomy

Dec. 30, 2013 Rise Set
Actual Time 7:16 AM EST 4:24 PM EST
Civil Twilight 6:44 AM EST 4:56 PM EST
Nautical Twilight 6:09 AM EST 5:31 PM EST
Astronomical Twilight 5:35 AM EST 6:05 PM EST
Moon 5:01 AM EST (12/30) 2:55 PM EST (12/30)
Length of Visible Light 10h 11m
Length of Day
9h 08m
Waning Crescent, 5% of the Moon is Illuminated
Dec 30
Waning Crescent
Jan 1
New
Jan 7
First Quarter
Jan 15
Full
Jan 24
Last Quarter

Hourly Weather History & Observations

Time (EST) Temp. Windchill Dew Point Humidity Pressure Visibility Wind Dir Wind Speed Gust Speed Precip Events Conditions
12:43 AM 34.0 °F 24.6 °F 32.0 °F 92% 29.55 in 10.0 mi WNW 13.8 mph - N/A   Scattered Clouds
12:51 AM 33.8 °F 26.4 °F 32.0 °F 93% 29.56 in 10.0 mi West 9.2 mph 19.6 mph N/A   Mostly Cloudy
12:54 AM 34.0 °F 26.6 °F 32.0 °F 92% 29.59 in 10.0 mi West 9.2 mph - N/A   Mostly Cloudy
1:18 AM 33.1 °F 24.9 °F 32.0 °F 96% 29.58 in 10.0 mi WNW 10.4 mph - N/A   Mostly Cloudy
1:54 AM 33.1 °F 23.4 °F 32.0 °F 96% 29.62 in 10.0 mi WNW 13.8 mph - N/A   Mostly Cloudy
2:54 AM 33.1 °F 24.9 °F 32.0 °F 96% 29.65 in 10.0 mi West 10.4 mph - N/A   Scattered Clouds
3:54 AM 33.1 °F 24.9 °F 32.0 °F 96% 29.68 in 10.0 mi West 10.4 mph - N/A   Mostly Cloudy
4:07 AM 33.1 °F 24.9 °F 32.0 °F 96% 29.66 in 10.0 mi West 10.4 mph - N/A   Mostly Cloudy
4:21 AM 33.1 °F 25.5 °F 32.0 °F 96% 29.66 in 10.0 mi WSW 9.2 mph - N/A   Mostly Cloudy
4:43 AM 33.1 °F 24.9 °F 32.0 °F 96% 29.66 in 10.0 mi West 10.4 mph - N/A   Scattered Clouds
4:54 AM 33.1 °F 24.4 °F 32.0 °F 96% 29.68 in 10.0 mi WSW 11.5 mph - N/A   Scattered Clouds
5:29 AM 34.0 °F 24.6 °F 32.0 °F 92% 29.66 in 10.0 mi West 13.8 mph - N/A   Mostly Cloudy
5:51 AM 33.8 °F 23.9 °F 32.0 °F 93% 29.68 in 10.0 mi West 15.0 mph - N/A   Scattered Clouds
5:54 AM 34.0 °F 23.8 °F 32.0 °F 92% 29.71 in 10.0 mi West 16.1 mph - N/A   Partly Cloudy
6:54 AM 35.1 °F 26.9 °F 30.9 °F 85% 29.74 in 10.0 mi WSW 11.5 mph - N/A   Mostly Cloudy
7:54 AM 34.0 °F 25.0 °F 30.0 °F 85% 29.77 in 10.0 mi WSW 12.7 mph - N/A   Clear
8:54 AM 36.0 °F 26.0 °F 30.9 °F 82% 29.81 in 10.0 mi West 17.3 mph 24.2 mph N/A   Clear
9:54 AM 36.0 °F 23.7 °F 24.1 °F 62% 29.85 in 10.0 mi West 26.5 mph 40.3 mph N/A   Partly Cloudy
10:54 AM 33.1 °F 21.5 °F 19.0 °F 56% 29.89 in 10.0 mi WNW 19.6 mph 28.8 mph N/A   Partly Cloudy
11:54 AM 32.0 °F 20.8 °F 17.1 °F 54% 29.89 in 10.0 mi WNW 17.3 mph 28.8 mph N/A   Clear
12:54 PM 32.0 °F 20.8 °F 12.0 °F 44% 29.90 in 10.0 mi NW 17.3 mph 27.6 mph N/A   Clear
1:54 PM 30.9 °F 20.2 °F 10.9 °F 43% 29.93 in 10.0 mi West 15.0 mph 25.3 mph N/A   Clear
2:54 PM 28.9 °F 16.9 °F 7.0 °F 40% 29.96 in 10.0 mi West 17.3 mph - N/A   Clear
3:54 PM 26.1 °F 15.0 °F 9.0 °F 49% 30.00 in 10.0 mi West 12.7 mph - N/A   Clear
4:54 PM 24.1 °F 10.6 °F 8.1 °F 51% 30.04 in 10.0 mi WNW 17.3 mph - N/A   Clear
5:54 PM 21.0 °F 7.6 °F 6.1 °F 53% 30.07 in 10.0 mi WNW 15.0 mph 23.0 mph N/A   Clear
6:54 PM 19.9 °F 6.7 °F 7.0 °F 57% 30.09 in 10.0 mi WNW 13.8 mph - N/A   Clear
7:54 PM 18.0 °F 5.4 °F 7.0 °F 62% 30.11 in 10.0 mi WNW 11.5 mph - N/A   Clear
8:54 PM 17.1 °F 6.6 °F 7.0 °F 65% 30.13 in 10.0 mi WNW 8.1 mph - N/A   Clear
9:54 PM 16.0 °F 4.4 °F 6.1 °F 65% 30.14 in 10.0 mi WNW 9.2 mph - N/A   Clear
10:54 PM 15.1 °F 1.8 °F 5.0 °F 64% 30.14 in 10.0 mi WNW 11.5 mph - N/A   Clear
11:54 PM 14.0 °F 2.9 °F 5.0 °F 67% 30.13 in 10.0 mi NW 8.1 mph - N/A   Clear